Location: Kernascl�den
(48.0062°N, 3.3198°W)
Time: 02:12:56
(UTC+00:00)

Daily predictions for brighter satellites

Satellite Brightness Start Highest point End
(mag) Time Altitude Azimuth Time Altitude Azimuth Time Altitude Azimuth
ATLAS 3B R/B 4.4 03:36:59 25° NNE 03:36:59 25° NNE 03:41:35 10° ENE
USA 215 4.1 03:52:15 10° E 03:57:09 45° ENE 03:57:09 45° ENE
CENTAUR R/B 3.9 03:57:40 39° NNE 03:58:53 41° NNE 04:06:51 10° E
Cosmos 1980 Rocket 4.1 04:05:28 23° ESE 04:06:46 25° ESE 04:11:15 10° NE
Cosmos 1697 Rocket 4.0 04:15:14 35° ENE 04:15:14 35° ENE 04:18:48 10° NE
USA 238 DEB 3.8 04:29:55 78° NE 04:29:55 78° NE 04:37:20 10° SE
USA 238 3.8 04:30:00 77° NE 04:30:01 77° NE 04:37:26 10° SE
COSMO-SKYMED 1 4.4 04:32:46 10° SE 04:35:40 28° E 04:35:40 28° E
Lacrosse 5 rocket 3.7 04:44:11 20° NNE 04:44:11 20° NNE 04:46:00 10° NE
COSMOS 2455 3.6 04:51:25 29° S 04:54:12 50° ESE 05:00:00 10° NE
Cosmos 1953 4.2 05:02:56 25° NNE 05:02:56 25° NNE 05:04:53 10° NNE
Cosmos 2263 Rocket 3.0 05:00:32 29° N 05:03:05 47° NE 05:08:31 10° SE
Orbus 7S? 4.4 05:07:24 43° E 05:07:24 43° E 05:11:24 10° ESE
Meteor 2-17 Rocket 4.4 05:02:01 10° N 05:08:09 81° E 05:14:12 10° SSE
CZ-2C R/B 4.1 05:05:20 10° N 05:07:13 23° N 05:07:13 23° N
Cosmos 2360 4.1 05:10:41 61° SSW 05:11:46 88° ESE 05:17:33 10° NNE
Cosmos 2344 3.4 05:09:57 45° SW 05:12:36 82° NW 05:20:59 10° NE
STARLINK-34 4.4 05:16:26 46° SE 05:16:26 46° SE 05:20:01 10° ENE
STARLINK-24 4.3 05:18:01 48° SE 05:18:01 48° SE 05:21:40 10° ENE
Cosmos 2327 Rocket 4.4 05:19:22 57° WSW 05:19:22 57° WSW 05:24:59 10° S
STARLINK-81 4.4 05:19:20 46° SE 05:19:20 46° SE 05:23:08 10° ENE
Cosmos 2341 Rocket 4.1 05:13:03 10° N 05:19:21 76° E 05:25:34 10° SSE
Nadezhda 1 Rocket 3.8 05:18:05 35° SSW 05:20:41 69° W 05:26:47 10° N
STARLINK-54 4.2 05:21:11 51° SE 05:21:11 51° SE 05:24:59 10° ENE
Cosmos 1953 Rocket 4.3 05:18:42 15° N 05:22:13 51° ENE 05:26:29 10° SSE
NOSS 3-2 (C) 3.9 05:18:50 36° NW 05:22:25 87° SW 05:30:48 10° SE
STARLINK-77 4.2 05:22:31 49° SE 05:22:33 49° SE 05:26:27 10° ENE
STARLINK-25 4.2 05:24:08 50° SSE 05:24:14 50° SE 05:28:08 10° ENE
SKYMED 2 3.5 05:20:09 10° SSE 05:24:15 80° S 05:24:15 80° S
NOSS 2-2 (C) 4.1 05:25:57 41° NNE 05:25:57 41° NNE 05:28:57 10° NE
Cosmos 2278 3.6 05:24:06 60° WSW 05:24:57 70° WNW 05:30:41 10° NNE
STARLINK-71 4.0 05:26:00 56° SSE 05:26:03 56° SE 05:30:00 10° ENE
Cosmos 1758 Rocket 3.4 05:27:04 85° SSW 05:27:04 85° SSW 05:31:23 10° S
STARLINK-79 4.0 05:27:16 52° SSE 05:27:28 53° SE 05:31:24 10° ENE
Cosmos 1538 Rocket 3.9 05:26:37 59° SW 05:27:30 73° WNW 05:32:49 10° NNE
ATLAS 3B R/B 3.0 05:24:16 27° NNW 05:28:03 63° NE 05:34:53 10° SE
STARLINK-78 4.0 05:28:54 53° SSE 05:29:10 55° SE 05:33:06 10° ENE
Cosmos 1726 2.7 05:27:12 10° S 05:30:47 55° E 05:34:22 10° NNE
STARLINK-57 3.9 05:30:39 56° SSE 05:30:55 58° SE 05:34:53 10° ENE
USA 32 4.3 05:25:53 10° N 05:31:08 70° E 05:36:22 10° SSE
STARLINK-49 3.9 05:32:03 54° S 05:32:25 57° SSE 05:36:24 10° ENE
STARLINK-27 3.9 05:33:40 55° S 05:34:06 59° SSE 05:38:04 10° ENE
Cosmos 2369 4.0 05:34:44 46° NW 05:34:45 46° NW 05:40:17 10° NNE
NOSS 2-2 (E) 4.2 05:35:47 38° N 05:35:47 38° N 05:39:02 10° NNE
Cosmos 1328 4.5 05:32:34 17° N 05:35:28 54° ENE 05:39:21 10° SSE
STARLINK-74 3.9 05:35:15 54° S 05:35:45 60° SSE 05:39:43 10° ENE
SL-16 R/B 3.6 05:31:32 10° S 05:36:43 38° ESE 05:41:55 10° NE
STARLINK-39 3.8 05:36:50 54° S 05:37:24 62° SSE 05:41:23 10° ENE
NOSS 3-4 (A) 4.2 05:31:47 10° SSW 05:37:32 51° ESE 05:43:39 10° NE
NOSS 3-4 (C) 4.2 05:31:54 10° SSW 05:37:39 51° ESE 05:43:45 10° NE
STARLINK 3.8 05:38:28 54° SSW 05:39:05 64° SSE 05:43:04 10° ENE
Cosmos 972 Rocket 4.2 05:35:43 22° NNW 05:39:48 68° WSW 05:45:21 10° S
FALCON 9 DEB 3.9 05:40:35 45° NNE 05:40:35 45° NNE 05:43:51 10° E
STARLINK-69 3.7 05:40:18 58° SSW 05:40:54 69° SSE 05:44:55 10° ENE
USA 215 3.2 05:34:54 10° SE 05:41:26 73° SW 05:44:30 34° WNW
STARLINK-21 3.7 05:41:41 53° SSW 05:42:24 67° SSE 05:46:25 10° ENE
FENGYUN 3A 3.7 05:37:21 10° NNE 05:42:47 81° ESE 05:48:12 10° SSW
Timation 1 Rocket 4.3 05:39:09 25° NNW 05:42:52 87° WSW 05:48:53 10° SSE
Okean O Rocket 2.7 05:38:34 10° NNE 05:42:54 47° E 05:47:09 10° S
NOSS 3-2 (A) 4.2 05:39:51 35° WNW 05:42:59 53° WSW 05:51:03 10° SSE
STARLINK-43 4.2 05:44:11 37° N 05:44:11 37° N 05:47:31 10° ENE
STARLINK-45 3.6 05:43:35 57° SSW 05:44:16 74° SSE 05:48:18 10° ENE
STARLINK-26 3.5 05:44:58 55° NNE 05:44:58 55° NNE 05:48:01 10° ENE
BREEZE M DEB (TANK) 3.2 05:45:10 38° S 05:45:41 43° SE 05:50:08 10° ENE
STARLINK-70 3.6 05:45:00 54° SW 05:45:48 74° SSE 05:49:50 10° ENE
BREEZE M DEB (TANK) 4.4 05:36:21 28° W 05:45:52 84° N 05:50:55 10° E
STARLINK-76 3.6 05:46:26 50° SW 05:47:21 72° SSE 05:51:23 10° ENE
CZ-4B R/B 4.0 05:41:58 10° NNE 05:47:26 53° E 05:52:44 10° S
STARLINK-61 3.3 05:47:41 70° W 05:48:04 79° NNW 05:52:02 10° ENE
Cosmos 2218 Rocket 4.2 05:42:20 10° N 05:48:47 77° E 05:55:07 10° SSE
ADEOS Rocket 3.5 05:43:31 10° SE 05:48:48 52° ENE 05:54:23 10° N
STARLINK 3.6 05:48:03 49° SW 05:49:01 74° SSE 05:53:02 10° ENE
STARLINK-75 3.3 05:48:31 63° SW 05:49:05 84° SSE 05:52:55 10° ENE
Cosmos 1980 Rocket 2.2 05:47:20 28° SW 05:50:20 60° WNW 05:55:58 10° NNE
CENTAUR R/B 3.1 05:44:52 23° NW 05:50:23 79° SW 05:59:06 10° SSE
Abrixas rocket 3.1 05:51:04 35° S 05:51:04 35° S 05:53:19 10° SE
STARLINK-32 3.6 05:49:37 48° SW 05:50:40 76° SSE 05:54:41 10° ENE
Meteor 1-16 Rocket 4.3 05:45:03 10° S 05:50:59 87° E 05:56:51 10° NNE
Cosmos 1825 Rocket 3.5 05:50:41 47° NW 05:51:27 55° W 05:55:42 10° S
STARLINK-40 3.6 05:51:14 46° SW 05:52:20 78° SSE 05:56:22 10° ENE
SJ-12 3.7 05:48:19 10° N 05:52:22 69° WNW 05:56:25 10° SSW
STARLINK-44 3.5 05:52:48 45° SW 05:53:57 79° SSE 05:57:59 10° ENE
STARLINK-37 3.5 05:54:34 45° SW 05:55:44 84° SSE 05:59:47 10° ENE
STARLINK-41 3.3 05:55:33 48° SW 05:56:31 83° SSE 06:00:21 10° ENE
SL-4 R/B 3.3 05:57:43 21° SSW 05:57:43 21° SSW 05:59:49 10° SSE
Cosmos 2154 Rocket 4.4 05:53:37 20° NW 05:57:03 36° W 06:02:35 10° SSW
STARLINK-36 3.5 05:55:59 42° SW 05:57:16 83° SSE 06:01:19 10° ENE
Cosmos 2058 Rocket 3.5 05:53:04 10° S 05:57:24 63° E 06:01:45 10° NNE
Cosmos 1697 Rocket 3.3 05:57:00 33° WNW 05:57:35 33° NW 06:02:40 10° NNE
PAYLOAD B 4.3 05:52:39 10° NNE 05:58:19 84° ESE 06:03:56 10° SSW
STARLINK-68 3.4 05:57:51 43° WSW 05:59:06 89° SSE 06:03:09 10° ENE
Cosmos 1908 3.5 05:55:14 10° S 05:59:07 69° E 06:03:02 10° NNE
Cosmos 1680 Rocket 3.6 05:54:31 10° SSW 05:59:50 78° ESE 06:05:11 10° NNE
STARLINK-29 3.7 05:59:12 42° NNW 05:59:55 50° NNE 06:03:22 10° E
STARLINK-63 3.4 05:59:18 40° WSW 06:00:40 89° SSE 06:04:43 10° ENE
STARLINK-52 3.7 06:00:07 40° NNW 06:00:50 48° NNE 06:04:15 10° E
NOAA 6 4.3 05:55:49 10° NNE 06:01:02 74° ESE 06:06:13 10° S
STARLINK-35 3.5 06:00:44 38° WSW 06:02:13 88° SSE 06:06:16 10° ENE
STARLINK 3.3 06:01:29 40° WSW 06:02:46 86° SSE 06:06:35 10° ENE
Cosmos 1371 Rocket 4.1 05:58:14 11° NNW 06:03:24 80° ENE 06:08:43 10° SSE
ALOS 2.2 05:59:11 10° N 06:03:48 61° WNW 06:08:23 10° SSW
STARLINK-51 3.4 06:02:20 37° WSW 06:03:52 90° S 06:07:55 10° ENE
Genesis I 3.0 06:03:07 40° NW 06:04:24 77° SW 06:08:12 10° SSE
STARLINK-30 3.4 06:03:55 36° WSW 06:05:30 89° NNW 06:09:33 10° ENE
STARLINK-33 3.1 06:05:57 45° WSW 06:06:56 78° NNW 06:10:33 10° ENE
STARLINK-72 3.4 06:05:31 34° WSW 06:07:11 87° NNW 06:11:14 10° ENE
STARLINK-50 3.4 06:07:06 33° WSW 06:08:49 86° NNW 06:12:52 10° ENE
Cosmos 1959 Rocket 4.4 06:02:49 10° N 06:08:58 79° W 06:15:06 10° S
STARLINK-66 3.1 06:08:27 42° W 06:09:31 75° NNW 06:13:07 10° ENE
STARLINK-59 3.4 06:08:50 33° WSW 06:10:34 82° NNW 06:14:37 10° ENE
Lacrosse 5 3.3 06:06:09 10° SSW 06:10:49 38° SE 06:15:30 10° ENE
Cosmos 1606 Rocket 3.7 06:07:38 10° SSW 06:11:56 49° WNW 06:16:15 10° N
STARLINK-55 3.1 06:10:52 40° W 06:12:00 72° NNW 06:15:34 10° ENE
STARLINK-56 3.4 06:10:18 31° WSW 06:12:09 82° NNW 06:16:12 10° ENE
ATLAS 2AS CENTAUR R/B 3.0 06:04:28 10° SW 06:12:29 84° NW 06:20:31 10° NE
Meteor 1-11 4.1 06:06:55 10° NNW 06:12:33 85° W 06:18:12 10° S
COSMO-SKYMED 1 3.3 06:08:57 10° SSW 06:12:45 29° W 06:12:54 29° W
Cosmos 1726 Rocket 3.5 06:08:49 10° SSW 06:13:12 59° WNW 06:17:36 10° N
Starlink (trailer) 3.4 06:11:52 30° WSW 06:13:47 81° NNW 06:17:50 10° ENE
STARLINK-28 3.2 06:12:50 39° W 06:13:59 67° NNW 06:17:32 10° ENE
Cosmos 1703 3.3 06:10:52 15° NNW 06:14:02 56° W 06:17:53 10° S
STARLINK-38 3.4 06:13:28 29° WSW 06:15:28 79° NNW 06:19:30 10° ENE
Helios 1A Rocket 3.1 06:12:15 10° NNE 06:16:24 78° ESE 06:20:32 10° S
STARLINK-65 3.4 06:15:04 28° WSW 06:17:06 78° NNW 06:21:09 10° ENE
Cosmos 2112 Rocket 4.0 06:11:49 10° SSW 06:17:11 89° WNW 06:22:35 10° NNE
STARLINK-53 3.5 06:16:48 27° WSW 06:18:52 75° NNW 06:22:55 10° ENE
STARLINK-80 4.2 06:18:26 28° NW 06:19:49 38° N 06:23:24 10° ENE
Cosmos 2366 rocket 4.0 06:15:48 10° NNW 06:22:06 67° W 06:28:23 10° S
Lacrosse 5 rocket 2.9 06:19:50 18° NW 06:22:12 27° N 06:26:01 10° ENE
STARLINK 1035 4.5 06:21:14 10° SSW 06:24:25 38° SE 06:27:36 10° ENE
STARLINK 1027 4.3 06:24:10 10° SW 06:27:25 42° SE 06:30:40 10° ENE
Cosmos 2278 Rocket 4.4 06:25:28 10° N 06:29:18 18° NE 06:33:08 10° E
STARLINK 1047 4.5 06:26:32 10° SW 06:29:59 42° SE 06:33:27 10° ENE
STARLINK 1037 4.4 06:27:16 10° SW 06:30:43 42° SE 06:34:11 10° ENE
Cosmos 1437 3.8 06:28:23 10° N 06:31:18 42° ENE 06:34:12 10° SSE
Cosmos 1624 Rocket 3.9 06:26:48 10° NNW 06:32:01 69° WSW 06:37:10 10° S
STARLINK-58 3.5 06:29:25 20° W 06:32:03 66° NNW 06:36:05 10° ENE
Cosmos 2228 3.6 06:28:22 10° SW 06:32:23 34° WNW 06:36:26 10° N
STARLINK 1028 3.7 06:30:28 10° SW 06:33:17 47° SE 06:36:07 10° ENE
CZ-4B DEB 4.4 06:28:07 10° N 06:33:25 47° WNW 06:38:40 10° SW
STARLINK 1021 3.6 06:30:41 10° SW 06:33:30 47° SE 06:36:21 10° ENE
STARLINK 1059 4.3 06:30:14 10° SW 06:33:42 45° SE 06:37:11 10° ENE
STARLINK 1019 3.6 06:30:56 10° SW 06:33:44 47° SSE 06:36:33 10° ENE
STARLINK-62 3.6 06:31:06 20° W 06:33:46 64° NNW 06:37:47 10° ENE
STARLINK 1012 3.6 06:31:09 10° SW 06:33:58 47° SSE 06:36:48 10° ENE
STARLINK 1010 3.6 06:31:21 10° SW 06:34:11 47° SSE 06:37:01 10° ENE
STARLINK 1026 3.6 06:31:30 10° SW 06:34:19 48° SE 06:37:10 10° ENE
STARLINK 1013 3.6 06:31:48 10° SW 06:34:37 48° SSE 06:37:28 10° ENE
STARLINK 1009 3.6 06:32:02 10° SW 06:34:51 48° SSE 06:37:42 10° ENE
STARLINK 1015 3.6 06:32:15 10° SW 06:35:05 48° SSE 06:37:55 10° ENE
STARLINK 1016 3.6 06:32:28 10° SW 06:35:17 49° SSE 06:38:08 10° ENE
STARLINK 1008 3.6 06:32:42 10° SW 06:35:31 49° SSE 06:38:23 10° ENE
STARLINK 1025 3.5 06:33:08 10° SW 06:35:57 49° SSE 06:38:48 10° ENE
STARLINK 1017 3.5 06:33:22 10° SW 06:36:12 49° SE 06:39:03 10° ENE
STARLINK 1023 3.5 06:33:34 10° SW 06:36:25 50° SSE 06:39:16 10° ENE
STARLINK 1007 3.5 06:33:50 10° SW 06:36:40 50° SSE 06:39:31 10° ENE
STARLINK 1057 4.3 06:33:11 10° SW 06:36:41 47° SE 06:40:11 10° ENE
STARLINK 1048 3.5 06:34:03 10° SW 06:36:54 50° SSE 06:39:45 10° ENE
STARLINK-48 4.2 06:34:52 21° WNW 06:37:03 39° N 06:40:45 10° ENE
STARLINK 1049 3.5 06:34:16 10° SW 06:37:07 50° SSE 06:39:58 10° ENE
STARLINK 1051 3.5 06:34:30 10° SW 06:37:20 51° SSE 06:40:12 10° ENE
Cosmos 1953 4.0 06:38:42 16° NW 06:38:42 16° NW 06:40:21 10° NNW
Meteor 2-12 Rocket 4.4 06:31:55 10° NNW 06:38:01 82° W 06:44:08 10° S
STARLINK 1029 3.8 06:35:28 10° SW 06:38:30 49° SE 06:41:33 10° ENE
EXPRESS MD2 2.5 06:37:26 24° WNW 06:38:52 53° N 06:41:02 10° ENE
STARLINK 1052 4.2 06:36:11 10° SW 06:39:41 50° SE 06:43:13 10° ENE
COSMOS 2455 3.3 06:34:44 10° WSW 06:40:20 39° NW 06:45:57 10° NNE
Cosmos 2322 Rocket 2.2 06:34:43 10° SSW 06:40:24 86° WNW 06:46:09 10° NNE
STARLINK 1014 3.4 06:38:09 10° SW 06:41:03 55° SSE 06:43:58 10° ENE
STARLINK-60 3.2 06:39:09 21° WNW 06:41:13 61° SSW 06:44:32 10° SE
CZ-4 R/B 4.3 06:38:11 10° NE 06:41:31 22° E 06:44:50 10° SE
STARLINK-42 3.5 06:39:51 17° W 06:42:32 55° NNW 06:46:15 10° ENE
STARLINK 1068 4.1 06:39:10 10° SW 06:42:42 52° SE 06:46:16 10° ENE
Cosmos 2263 Rocket 2.9 06:42:16 12° NW 06:46:49 32° WSW 06:51:46 10° SSW
Cosmos 2056 Rocket 3.7 06:41:49 10° NNW 06:47:07 55° WSW 06:52:23 10° S
STARLINK 1060 3.9 06:45:07 10° SW 06:48:42 58° SSE 06:52:17 10° ENE
STARLINK-64 3.6 06:45:44 15° W 06:48:44 54° NNW 06:52:29 10° ENE
BREEZE-M DEB (TANK) 3.8 06:45:27 15° W 06:49:03 79° N 07:04:10 10° E
STARLINK 1030 3.8 06:48:07 10° SW 06:51:44 61° SSE 06:55:20 10° ENE
STARLINK 1020 3.7 06:51:32 10° SW 06:55:10 65° SSE 06:58:50 10° ENE
STARLINK-34 3.8 06:51:41 12° W 06:55:16 53° NNW 06:59:14 10° ENE
STARLINK-24 3.8 06:53:16 12° W 06:56:55 52° NNW 07:00:52 10° ENE
STARLINK 1034 3.6 06:54:13 10° SW 06:57:50 67° SSE 07:01:28 10° ENE
STARLINK-81 3.8 06:54:36 11° W 06:58:24 54° NNW 07:02:21 10° ENE
Cosmos 1844 Rocket 2.8 06:54:22 10° NNW 07:00:03 81° ENE 07:05:42 10° SSE
STARLINK-54 3.8 06:56:27 11° W 07:00:15 51° NNW 07:04:12 10° ENE
STARLINK-77 3.8 06:57:46 10° W 07:01:42 52° NNW 07:05:40 10° ENE
SMAP 3.0 06:57:20 10° N 07:01:59 69° WNW 07:06:36 10° SSW
AQUARIUS 4.1 06:58:30 10° N 07:03:01 72° WNW 07:07:29 10° SSW
STARLINK-25 3.8 06:59:28 10° W 07:03:24 52° NNW 07:07:21 10° ENE
STARLINK 1033 3.5 07:00:20 10° SW 07:03:58 74° SSE 07:07:38 10° ENE
STARLINK-71 3.9 07:01:20 10° W 07:05:16 49° NNW 07:09:13 10° ENE
RESURS DK-1 2.3 07:01:49 10° SSW 07:05:57 80° WNW 07:10:08 10° NNE
Cosmos 1726 3.9 07:04:42 10° W 07:06:22 13° WNW 07:08:00 10° NW
STARLINK-79 3.9 07:02:44 10° W 07:06:40 50° NNW 07:10:37 10° ENE
STARLINK-78 3.9 07:04:26 10° W 07:08:21 50° NNW 07:12:18 10° ENE
STARLINK-57 3.9 07:06:14 10° W 07:10:10 48° NNW 07:14:06 10° ENE
Cosmos 1812 Rocket 3.5 07:06:58 10° SSW 07:11:20 75° W 07:15:46 10° N
STARLINK-49 3.9 07:07:44 10° W 07:11:40 49° NNW 07:15:35 10° ENE
STARLINK-27 3.9 07:09:26 10° W 07:13:21 48° NNW 07:17:16 10° ENE
STARLINK-74 3.9 07:11:06 10° W 07:15:00 48° NNW 07:18:56 10° ENE
Cosmos-2242 4.2 07:11:57 10° SSE 07:16:12 50° E 07:20:27 10° NNE
STARLINK 1040 2.6 07:13:29 10° WSW 07:16:21 71° NNW 07:19:11 10° ENE
STARLINK-39 4.0 07:12:45 10° W 07:16:40 47° NNW 07:20:35 10° ENE
FALCON 9 DEB 3.7 07:14:10 10° WNW 07:17:35 50° SW 07:20:59 10° SE
STARLINK 4.0 07:14:28 10° W 07:18:21 47° NNW 07:22:16 10° ENE
ATLAS 3B R/B 3.4 07:12:29 10° NW 07:18:25 34° WSW 07:24:30 10° S
Okean O Rocket 2.8 07:15:31 10° NNW 07:18:57 22° WNW 07:22:22 10° WSW
H-2A R/B 3.5 07:15:37 10° N 07:19:09 33° WNW 07:22:39 10° SW
STARLINK-69 4.0 07:16:19 10° W 07:20:13 45° NNW 07:24:07 10° ENE
SL-16 R/B 2.6 07:15:28 10° WSW 07:20:47 41° NW 07:26:10 10° NNE
Okean-O 2.7 07:16:59 10° NNE 07:21:26 88° WNW 07:25:52 10° SSW
Cosmos 2322 4.3 07:17:08 10° SSW 07:22:44 65° ESE 07:28:21 10° NNE
CZ-3 R/B 4.1 07:21:13 10° WSW 07:24:57 12° SW 07:27:40 10° SSW
